Date,TemperatureHighF,TemperatureAvgF,TemperatureLowF,DewpointHighF,DewpointAvgF,DewpointLowF,HumidityHigh,HumidityAvg,HumidityLow,PressureMaxIn,PressureMinIn,WindSpeedMaxMPH,WindSpeedAvgMPH,GustSpeedMaxMPH,PrecipitationSumIn
2013-1-1,33,28,22,33,26,18,99,90,79,29.97,29.80,6,1,8,0.01
2013-1-2,44,29,14,23,17,12,91,63,39,29.99,29.91,4,1,7,0.01
2013-1-3,45,30,20,30,22,14,87,72,48,30.14,29.95,8,2,13,0.00
2013-1-4,44,31,18,31,22,17,95,72,45,30.18,30.06,8,2,11,0.00
2013-1-5,54,36,23,31,26,18,89,68,37,30.06,29.88,7,2,11,0.00
2013-1-6,43,34,20,31,25,17,90,71,48,30.12,29.85,14,5,18,0.00
2013-1-7,52,33,16,29,22,15,100,69,34,30.14,29.91,8,3,14,0.00
2013-1-8,62,44,26,39,28,14,91,58,16,29.95,29.84,8,3,12,0.00
2013-1-9,66,48,0,52,41,35,100,71,42,30.18,29.39,7,2,10,0.09
2013-1-10,62,53,43,62,49,34,100,86,64,30.16,29.53,11,6,14,0.39
2013-1-11,66,57,51,56,50,47,93,78,55,29.66,29.56,13,6,14,0.00
2013-1-12,59,46,32,54,44,32,99,93,83,29.66,29.55,12,5,15,1.76
2013-1-13,33,26,18,32,24,16,100,93,81,30.08,29.63,7,0,11,0.01
2013-1-14,30,20,13,21,14,11,94,78,59,30.21,30.08,0,0,0,0.00
2013-1-15,15,14,14,13,12,11,92,91,90,30.11,30.08,0,0,0,0.00
2013-1-29,54,52,52,54,52,52,99,99,99,29.93,29.86,3,1,5,9.08
2013-1-30,69,40,28,52,35,17,99,84,64,30.25,29.79,17,6,26,0.15
2013-1-31,43,28,14,28,17,3,84,63,46,30.41,29.98,17,5,27,0.17
2013-2-1,36,21,8,13,5,0,73,51,23,30.52,30.26,10,2,17,0.00
2013-2-2,48,36,27,29,22,10,82,58,42,30.27,30.07,14,3,21,0.00
2013-2-3,46,37,28,33,22,11,85,55,25,30.22,30.04,17,4,27,0.00
2013-2-4,63,46,31,43,31,18,83,57,42,30.03,29.82,9,2,16,0.00
2013-2-5,64,43,23,37,28,22,98,62,26,30.15,29.93,13,2,20,0.00
2013-2-6,61,42,24,35,28,22,99,63,24,30.28,30.10,8,2,13,0.00
2013-2-7,71,52,40,53,47,29,99,84,47,30.08,29.87,11,3,18,0.30
2013-2-8,42,36,32,42,32,28,99,87,78,30.40,30.06,11,3,17,0.01
2013-2-9,46,36,29,38,29,26,98,78,54,30.38,30.05,8,3,12,0.12
2013-2-10,61,49,39,57,43,30,99,83,44,30.05,29.64,11,3,24,0.48
2013-2-11,56,43,27,32,26,21,86,54,27,30.19,29.87,14,3,23,0.00
2013-2-12,49,37,23,37,29,22,97,74,49,30.19,29.96,7,1,9,0.01
2013-2-13,38,36,34,38,36,33,99,99,96,29.97,29.93,7,2,13,0.09
2013-2-14,60,48,38,37,31,27,73,53,28,30.09,29.89,7,2,10,0.00
2013-2-15,45,33,28,32,16,6,78,51,22,30.28,30.09,9,2,14,0.00
2013-2-16,43,29,20,17,11,0,75,51,18,30.29,30.19,11,2,16,0.00
2013-2-17,58,46,30,34,26,16,66,46,24,30.20,29.95,10,3,17,0.00
2013-2-18,57,47,35,50,42,29,99,81,66,29.97,29.62,17,5,27,0.37
2013-2-19,44,33,24,29,15,2,79,50,19,30.33,29.97,14,6,24,0.00
2013-2-20,35,25,20,16,11,8,74,55,40,30.41,30.28,5,2,8,0.00
2013-2-21,33,28,23,33,26,16,99,92,73,30.31,29.83,17,4,26,0.25
2013-2-22,39,32,24,35,28,20,99,85,67,30.11,29.84,8,1,12,0.11
2013-2-23,53,32,17,27,21,16,97,69,33,30.10,29.99,4,1,9,0.00
2013-2-24,53,36,17,32,24,16,95,67,34,30.14,30.03,8,2,12,0.00
2013-2-25,52,39,26,37,31,24,99,75,46,30.07,29.55,14,3,24,0.63
2013-2-26,46,38,34,43,36,32,99,94,78,29.73,29.33,10,3,17,0.34
2013-2-27,37,34,32,33,29,26,94,84,74,29.95,29.73,11,5,20,0.01
2013-2-28,38,33,31,31,28,26,99,84,72,30.14,29.94,10,4,18,0.01
2013-3-1,35,31,28,31,28,25,99,90,75,30.22,30.10,8,4,15,0.02
2013-3-2,35,28,20,26,21,15,91,76,54,30.27,30.19,11,3,17,0.00
2013-3-3,50,31,16,25,19,13,94,65,31,30.24,30.06,7,1,11,0.00
2013-3-4,55,47,36,44,37,23,94,68,46,30.05,29.78,13,3,21,0.02
2013-3-5,45,36,32,43,31,21,99,81,51,30.18,29.81,18,7,30,0.15
2013-3-6,46,33,22,27,23,20,89,67,47,30.40,30.17,15,4,25,0.00
2013-3-7,61,37,20,32,26,18,95,68,28,30.44,30.30,8,2,13,0.00
2013-3-8,60,43,25,34,27,17,99,58,23,30.44,30.22,11,3,16,0.00
2013-3-9,75,58,45,45,32,27,62,40,17,30.22,29.85,12,4,21,0.08
2013-3-10,61,55,46,56,49,38,99,83,43,29.85,29.70,12,4,23,0.98
2013-3-11,46,36,29,44,31,24,96,84,73,30.04,29.77,11,4,18,0.00
2013-3-12,55,38,25,28,25,20,93,62,28,30.25,30.03,13,4,24,0.00
2013-3-13,36,34,33,24,23,21,65,62,60,30.26,30.25,12,6,24,0.00
2013-3-14,63,40,23,36,26,18,87,59,27,30.43,30.11,6,2,10,0.00
2013-3-15,86,64,32,47,39,31,97,46,18,30.11,29.74,4,1,9,0.00
2013-3-16,70,64,58,49,46,42,66,52,37,29.87,29.72,9,2,16,0.00
2013-3-17,38,35,33,37,35,33,99,99,98,30.09,29.84,9,2,16,1.93
2013-3-18,53,46,41,41,36,29,87,68,56,30.05,29.82,13,4,18,0.04
2013-3-19,56,41,30,28,19,10,69,45,17,30.24,30.07,7,2,11,0.00
2013-3-20,44,35,26,33,20,10,98,59,26,30.28,30.15,12,4,18,0.01
2013-3-21,50,38,18,17,14,9,75,38,23,30.15,29.99,7,2,11,0.00
2013-3-22,42,39,32,29,27,21,88,62,54,30.06,29.99,8,2,10,0.00
2013-3-23,57,46,37,36,29,26,68,52,43,30.05,29.95,9,2,14,0.00
2013-3-24,42,32,30,40,32,30,99,99,90,29.89,29.58,14,7,24,0.38
2013-3-25,38,31,27,34,28,25,99,90,70,30.23,29.01,13,6,20,0.01
2013-3-26,49,35,26,30,25,21,89,69,38,30.38,30.23,11,3,17,0.01
2013-3-27,61,40,20,32,25,19,97,61,23,30.41,30.29,6,1,10,0.00
2013-3-28,66,51,39,39,34,31,77,55,30,30.36,30.23,11,2,17,0.02
2013-3-29,69,52,42,53,46,39,99,83,55,30.27,30.19,8,2,11,0.13
2013-3-30,58,44,37,48,42,37,99,93,65,30.23,30.09,8,1,12,0.00
2013-3-31,74,59,48,54,43,28,99,65,21,29.97,29.89,7,2,13,0.01
2013-4-1,55,50,41,39,32,26,68,51,35,30.20,29.96,9,3,14,0.00
2013-4-2,58,47,26,31,19,9,83,35,15,30.37,30.26,6,1,11,0.00
2013-4-3,58,46,26,31,23,20,89,44,24,30.40,30.25,11,2,16,0.00
2013-4-4,69,47,26,33,24,13,90,49,12,30.26,30.04,8,1,11,0.00
2013-4-5,79,53,31,42,33,26,85,52,19,30.20,30.06,11,2,20,0.00
2013-4-6,78,64,51,44,38,28,57,40,18,30.07,29.04,10,3,20,0.01
2013-4-7,85,69,51,58,50,43,81,54,27,29.96,28.99,8,2,16,0.00
2013-4-8,80,69,62,61,57,54,81,66,49,29.92,29.81,11,3,17,0.00
2013-4-9,82,71,61,64,60,56,86,69,49,29.97,29.85,8,2,16,0.00
2013-4-10,85,73,61,71,66,60,99,80,55,29.86,29.66,11,3,19,1.26
2013-4-11,62,51,45,62,50,43,99,99,95,29.76,29.70,8,3,14,0.02
2013-4-12,56,43,36,35,31,29,81,65,40,30.07,29.78,11,2,17,0.00
2013-4-13,75,53,32,44,36,30,97,60,24,30.11,29.91,10,2,17,0.00
2013-4-14,82,66,51,56,47,40,73,54,25,29.93,28.98,17,4,31,0.01
2013-4-15,79,68,59,64,59,54,89,75,56,29.92,29.78,11,2,16,0.00
2013-4-16,68,53,48,63,51,48,99,94,83,30.15,29.88,8,1,13,0.00
2013-4-17,89,68,49,70,59,48,99,78,42,30.13,29.76,9,3,22,0.00
2013-4-18,76,61,41,69,58,33,99,89,72,29.83,28.75,12,4,21,0.94
2013-4-19,57,45,38,33,28,17,74,54,23,30.11,29.82,14,4,23,0.00
2013-4-20,68,50,29,39,31,24,95,54,23,30.34,30.11,8,1,14,0.00
2013-4-21,70,55,41,40,36,32,74,51,30,30.42,30.24,11,3,15,0.00
2013-4-22,78,61,38,46,40,33,90,52,20,30.29,29.13,10,2,23,0.00
2013-4-23,60,48,0,60,49,40,99,82,63,30.08,29.87,8,1,17,0.14
2013-4-24,40,39,39,40,39,39,99,99,99,30.05,30.01,8,3,11,0.02
2013-4-25,72,55,35,41,34,29,87,50,22,30.38,30.28,8,2,11,0.00
2013-4-26,56,51,48,52,48,40,99,88,59,30.43,30.26,10,2,17,0.09
2013-4-27,56,52,49,55,52,48,99,99,97,30.30,29.96,8,2,13,0.02
2013-4-28,66,55,46,55,52,46,99,89,63,30.01,28.99,8,2,11,0.01
2013-4-29,83,47,0,62,51,43,99,71,42,29.97,29.01,6,1,13,0.11
2013-4-30,67,66,66,61,61,60,83,82,81,29.50,29.50,4,0,9,0.00
2013-5-1,86,75,52,63,60,52,99,62,37,30.11,29.99,11,2,18,0.00
2013-5-2,91,64,44,67,56,44,99,81,28,30.17,29.19,11,2,16,0.52
2013-5-3,44,40,38,44,40,38,99,99,99,30.12,29.85,7,2,11,0.12
2013-5-4,53,44,35,42,38,35,99,81,56,30.02,29.87,7,1,11,0.01
2013-5-5,36,35,34,36,34,33,99,99,98,30.01,29.99,0,0,0,0.00
2013-5-6,73,64,52,59,55,52,99,73,54,30.01,29.91,6,1,11,0.01
2013-5-7,84,67,0,61,56,49,99,71,42,31.43,30.00,8,0,15,0.00
2013-5-8,89,69,49,63,54,44,99,66,23,30.09,30.00,5,0,10,0.00
2013-5-9,86,75,62,68,60,56,95,63,37,30.03,29.89,7,1,13,0.02
2013-5-10,80,67,58,64,59,54,97,78,47,30.03,29.88,10,2,17,0.01
2013-5-11,77,63,50,55,47,32,92,60,29,30.19,30.02,9,2,16,0.00
2013-5-12,69,55,38,37,30,17,80,45,16,30.27,30.16,9,1,14,0.00
2013-5-13,63,40,35,46,36,33,96,86,55,30.27,30.21,1,0,2,0.00
2013-5-15,95,84,73,66,64,58,79,53,31,29.98,29.89,4,1,11,0.00
2013-5-16,86,73,67,69,65,58,95,80,41,30.00,29.92,4,0,7,0.02
2013-5-17,82,74,64,68,66,61,98,77,61,29.99,29.94,8,2,12,0.00
2013-5-18,91,80,64,71,68,63,99,70,49,30.05,29.08,6,1,11,0.00
2013-5-19,95,82,70,77,70,62,98,70,39,29.95,29.77,8,1,16,0.00
2013-5-20,85,73,63,73,67,60,99,81,65,29.98,29.78,8,1,14,0.18
2013-5-21,83,69,63,67,64,63,99,86,55,29.87,29.74,5,1,11,0.09
2013-5-22,83,71,60,65,59,54,99,70,40,29.93,29.74,5,1,11,0.00
2013-5-23,74,63,54,59,55,53,99,77,55,30.24,29.93,8,2,16,0.00
2013-5-24,77,61,45,54,44,28,99,60,20,30.42,30.23,7,1,11,0.01
2013-5-25,80,64,45,59,51,42,93,66,43,30.35,30.16,9,1,13,0.00
2013-5-26,92,75,56,68,61,53,91,64,44,30.20,30.05,8,0,13,0.00
2013-5-27,87,74,68,68,61,55,80,64,51,30.06,29.98,4,0,13,0.00
2013-5-28,90,77,72,70,65,62,82,67,44,29.95,29.85,4,1,8,0.00
2013-5-29,91,81,66,70,65,60,84,60,39,30.02,29.87,6,1,17,0.00
2013-5-30,88,76,64,74,70,64,99,81,54,30.01,29.85,8,1,18,0.91
2013-5-31,84,72,64,75,68,64,99,89,63,29.99,29.79,11,1,15,1.13
2013-6-1,81,70,65,70,65,58,99,86,65,29.94,29.77,11,1,20,1.02
2013-6-2,73,65,57,62,59,56,99,82,67,30.06,29.93,4,1,10,0.00
2013-6-3,80,67,54,62,56,51,99,72,42,30.11,30.02,5,0,9,0.00
2013-6-4,84,68,51,64,58,51,99,73,47,30.11,30.01,2,0,5,0.00
2013-6-5,90,75,57,67,63,56,99,72,42,30.03,29.87,3,0,7,0.02
2013-6-6,85,72,63,68,63,57,99,75,48,29.91,29.86,6,1,11,0.01
2013-6-7,80,68,57,62,58,55,94,71,49,29.95,29.89,7,1,12,0.00
2013-6-8,87,70,53,64,57,53,99,69,34,30.02,29.95,4,0,9,0.00
2013-6-9,86,70,63,68,62,58,99,77,52,29.99,29.85,3,0,7,0.17
2013-6-10,85,73,61,66,64,60,99,75,51,29.96,29.83,4,1,10,0.00
2013-6-11,101,90,61,75,71,61,99,57,35,30.02,29.92,4,0,8,0.00
2013-6-12,99,88,75,76,73,69,83,61,45,30.01,29.83,4,1,15,0.00
2013-6-13,83,82,81,72,71,70,72,69,66,29.86,29.83,5,1,10,0.00
2013-6-14,92,76,59,66,62,58,99,68,37,30.12,30.00,7,1,11,0.00
2013-6-15,93,79,63,72,66,61,92,68,45,30.13,29.99,2,0,6,0.00
2013-6-16,91,80,70,77,72,67,96,78,56,30.07,29.95,5,0,10,0.08
2013-6-17,93,77,68,78,72,-61,99,87,56,29.99,29.90,6,0,10,0.47
2013-6-21,97,84,68,76,72,68,99,70,46,30.16,30.07,4,1,8,0.00
2013-6-22,96,81,68,76,71,66,99,75,50,30.14,30.04,4,1,14,0.32
2013-6-23,95,80,68,75,70,66,99,76,49,30.12,30.00,4,1,7,0.01
2013-6-24,98,83,67,78,72,67,99,73,44,30.12,30.00,2,0,5,0.01
2013-6-25,98,87,75,77,74,71,89,66,47,30.02,29.87,4,1,11,0.00
2013-6-26,98,85,76,80,75,72,90,73,53,29.92,29.79,2,0,6,0.00
2013-6-27,98,82,73,76,72,67,90,74,37,29.95,29.83,4,0,9,0.00
2013-6-28,80,75,74,75,73,71,99,93,80,29.92,29.85,2,0,4,0.00
2013-6-29,87,68,60,65,64,58,99,89,43,28.82,28.76,7,1,12,0.06
2013-6-30,81,70,64,72,66,63,99,87,59,29.91,28.82,4,1,12,0.18
2013-7-3,74,71,68,62,62,60,76,71,66,30.11,30.07,2,0,4,0.00
2013-7-4,90,76,59,68,62,58,99,68,39,30.13,29.67,6,0,11,0.00
2013-7-5,91,75,61,74,68,61,99,81,51,29.74,29.65,8,0,12,0.01
2013-7-6,88,70,65,74,68,64,99,93,61,29.71,29.67,2,0,4,0.00
2013-7-7,97,85,65,73,69,65,99,63,35,30.10,30.04,2,0,5,0.00
2013-7-8,84,38,0,73,71,69,96,38,68,30.11,0.00,0,0,2,0.00
2013-7-9,101,65,0,78,74,71,91,40,41,30.11,0.00,4,0,8,0.00
2013-7-10,83,77,73,77,74,72,99,90,80,30.06,29.03,8,0,16,0.14
2013-7-11,79,71,65,62,61,61,91,72,55,30.08,30.04,0,0,0,0.00
2013-7-12,64,60,59,62,60,59,99,99,94,30.10,30.08,0,0,0,0.00
2013-7-13,91,83,69,65,63,61,81,52,40,30.12,30.04,2,0,6,0.00
2013-7-14,91,78,61,73,68,61,99,76,50,30.17,30.07,6,1,9,0.01
2013-7-15,85,75,70,76,72,69,99,92,72,30.22,30.16,3,0,6,0.00
2013-7-16,98,85,71,78,73,71,99,71,45,30.33,30.25,4,1,11,0.00
2013-7-17,100,85,71,77,74,70,99,73,44,30.36,30.23,2,0,3,0.00
2013-7-18,101,85,70,77,73,68,99,73,37,30.26,30.08,2,0,5,0.00
2013-7-19,103,86,72,76,72,70,99,69,37,30.09,29.94,3,0,6,0.00
2013-7-20,101,80,69,77,72,68,99,80,45,29.99,29.87,9,1,14,2.61
2013-7-21,92,77,70,79,73,70,99,87,58,29.98,29.88,1,0,3,0.02
2013-7-22,97,89,69,77,74,69,99,64,48,29.91,29.83,4,0,8,0.00
2013-7-23,98,78,71,79,69,65,96,76,50,29.93,29.81,4,0,20,0.00
2013-7-24,73,69,68,68,68,66,99,94,82,30.00,29.91,2,0,5,0.00
2013-7-25,87,71,57,64,61,57,99,73,41,30.14,30.06,2,0,4,0.00
2013-7-26,81,71,62,71,65,60,96,82,60,30.12,30.06,2,0,4,0.04
2013-8-28,79,77,75,73,72,71,89,85,80,30.06,29.10,0,0,0,0.00
2013-8-29,103,84,69,79,72,68,99,70,36,30.09,30.00,4,0,7,0.00
2013-8-30,104,86,69,78,73,69,99,70,37,30.02,29.90,4,0,9,0.00
2013-8-31,101,86,72,77,74,68,99,71,37,30.23,30.04,2,0,5,0.00
2013-9-1,103,80,71,76,72,69,99,79,37,30.06,29.83,3,0,6,5.88
2013-9-2,92,72,68,72,70,66,99,92,48,29.98,29.87,2,0,4,0.07
2013-9-3,94,79,57,67,58,48,99,54,23,30.10,29.99,4,0,8,0.00
2013-9-4,96,74,55,68,60,52,99,68,26,30.19,30.08,4,0,8,0.00
2013-9-5,64,59,56,62,59,56,99,98,90,30.20,30.15,0,0,1,0.00
2013-9-11,104,85,70,75,70,65,97,65,30,30.17,30.05,2,0,4,0.00
2013-9-12,95,78,58,74,64,51,97,65,38,30.12,30.01,2,0,7,0.00
2013-9-13,84,67,49,59,52,47,94,62,34,30.14,30.06,2,0,4,0.00
2013-9-14,86,66,45,54,46,39,99,56,21,30.18,30.04,3,0,7,0.00
2013-9-15,93,73,50,65,56,46,92,60,30,30.14,30.03,2,0,4,0.00
2013-9-16,70,65,60,67,63,59,99,92,77,30.26,30.13,2,0,4,0.38
2013-9-17,83,70,60,68,66,60,99,88,61,30.24,30.09,2,0,4,0.02
2013-9-18,96,78,68,74,70,67,99,79,43,30.10,29.99,3,0,7,0.22
2013-9-19,98,81,73,78,74,70,97,80,48,30.05,29.92,4,0,9,0.00
2013-9-20,78,71,61,74,70,60,99,96,78,29.96,28.94,4,0,10,0.24
2013-9-21,81,64,52,60,54,50,99,74,38,29.99,28.98,5,1,9,0.00
2013-9-22,86,64,45,59,50,44,99,69,27,30.03,29.93,6,0,9,0.00
2013-9-23,76,57,47,60,53,46,99,88,52,30.04,29.98,2,0,3,0.00
2013-9-24,80,71,67,69,68,66,99,90,69,29.83,28.86,4,1,9,0.27
2013-9-25,92,71,64,72,66,64,99,88,43,29.90,28.84,2,0,4,0.00
2013-9-26,93,69,58,72,63,58,99,84,40,30.03,29.02,4,0,8,0.00
2013-9-27,89,67,59,73,61,58,99,85,44,30.12,30.03,4,1,8,0.00
2013-9-28,90,74,64,68,64,58,95,71,46,30.08,29.98,5,1,11,0.07
2013-9-29,84,70,59,68,62,55,99,80,39,30.08,29.98,3,0,7,0.52
2013-9-30,88,73,59,69,65,59,99,80,48,30.00,29.92,4,1,9,0.00
2013-10-1,87,73,-13,74,69,-27,99,90,49,30.05,29.96,97,1,97,0.00
2013-10-2,89,73,67,77,71,67,99,94,64,30.08,30.04,2,0,4,0.00
2013-10-3,90,75,69,74,72,68,99,91,57,30.02,29.93,3,1,8,0.02
2013-10-4,91,78,70,77,72,69,99,84,57,30.03,29.93,5,1,9,0.01
2013-10-5,85,72,54,77,69,54,99,92,66,29.99,29.87,2,0,4,0.52
2013-10-6,66,59,47,56,45,41,99,63,47,29.94,28.95,8,2,17,0.02
2013-10-7,76,58,49,52,48,45,99,74,37,30.17,29.94,3,1,4,0.00
2013-10-8,79,59,43,58,48,42,99,72,35,30.22,30.13,4,1,8,0.00
2013-10-9,85,68,41,59,56,41,99,68,39,30.20,30.09,5,0,9,0.00
2013-10-10,88,68,0,67,59,50,99,73,41,30.17,29.10,4,0,9,0.00
2013-10-11,87,72,51,68,61,51,99,71,43,30.06,29.94,5,1,10,0.00
2013-10-12,83,67,58,70,64,58,99,91,56,30.08,29.96,4,0,6,0.31
2013-10-13,82,62,44,58,48,37,99,68,20,30.38,30.21,4,0,8,0.00
2013-10-14,71,58,45,59,50,44,99,80,49,30.33,30.07,5,0,9,0.00
2013-10-15,70,64,56,70,63,54,99,97,90,30.07,29.92,4,1,8,0.60
2013-10-16,68,56,47,55,47,44,99,75,47,30.06,29.98,5,1,10,0.00
2013-10-17,70,56,48,53,48,42,99,78,41,30.02,29.94,5,1,9,0.01
2013-10-18,71,59,47,53,46,40,90,63,46,30.08,29.98,2,1,4,0.04
2013-10-19,63,46,41,46,39,36,99,78,38,30.06,29.99,4,1,8,0.22
2013-10-20,77,54,37,51,42,37,99,70,29,30.01,29.92,4,1,11,0.00
2013-10-21,60,52,40,49,44,37,94,77,63,30.09,29.96,3,1,5,0.00
2013-10-22,66,48,32,46,40,32,99,75,43,30.08,29.83,7,1,12,0.00
2013-10-23,60,47,38,38,35,32,93,66,38,30.15,30.00,4,1,8,0.00
2013-10-24,54,43,32,37,31,24,88,64,33,30.41,30.13,6,2,12,0.00
2013-10-25,63,42,24,40,28,22,99,62,20,30.52,30.25,3,0,5,0.00
2013-10-26,72,50,40,49,38,29,79,64,43,30.23,30.02,4,1,11,0.00
2013-10-27,74,47,29,41,33,25,99,66,18,30.15,29.17,4,0,8,0.00
2013-10-28,80,53,32,52,40,32,99,69,23,30.22,30.07,5,0,9,0.00
2013-10-31,77,64,50,68,62,50,99,93,69,29.87,29.41,4,2,11,0.46
2013-11-1,69,55,47,50,46,41,99,73,41,29.91,29.71,7,1,11,0.00
2013-11-2,58,47,36,44,40,35,99,78,50,30.22,29.90,6,2,11,0.00
2013-11-3,68,47,30,44,35,29,99,68,33,30.32,30.17,8,1,13,0.00
2013-11-4,59,53,47,50,43,36,89,69,61,30.25,30.14,5,1,11,0.00
2013-11-5,67,56,50,56,52,50,99,86,64,30.27,30.05,4,1,9,0.18
2013-11-6,62,44,37,60,43,36,99,95,84,30.28,29.95,11,2,17,0.38
2013-11-7,62,40,31,42,36,31,99,86,45,30.41,30.28,7,1,11,0.00
2013-11-8,69,54,27,43,32,25,99,48,20,30.38,30.15,7,1,15,0.00
2013-11-9,73,50,40,43,40,36,97,73,33,30.25,29.24,5,0,10,0.00
2013-11-10,69,51,38,45,35,24,99,61,20,30.42,30.25,4,0,7,0.00
2013-11-11,72,52,36,50,40,32,99,68,34,30.44,30.14,6,1,10,0.05
2013-11-12,44,31,19,35,17,14,99,60,35,30.74,29.73,8,1,15,0.01
2013-11-13,56,33,15,31,16,6,96,57,14,30.69,29.52,6,1,11,0.00
2013-11-14,64,46,32,27,22,10,57,40,13,30.34,30.08,8,2,17,0.00
2013-11-15,58,49,47,48,33,25,89,56,34,30.10,29.96,5,2,11,0.00
2013-11-16,62,56,51,60,54,48,99,93,82,29.96,29.72,10,3,17,0.01
2013-11-17,81,68,50,67,46,11,98,55,12,30.00,29.50,13,4,23,0.00
2013-11-18,60,54,38,41,29,23,80,44,24,30.31,30.01,9,5,14,0.00
2013-11-19,60,55,31,27,24,23,81,33,24,30.36,30.21,8,7,14,0.00
2013-11-20,51,44,30,40,33,25,86,66,49,30.21,30.04,4,1,8,0.01
2013-11-21,54,51,48,52,50,40,99,95,64,30.19,30.07,4,0,10,0.74
2013-11-22,39,34,-12,39,34,-12,99,99,99,30.53,28.82,11,4,122,0.01
2013-11-23,77,31,-13,67,18,-24,94,60,41,30.69,29.58,56,3,125,0.00
2013-11-24,36,26,12,17,12,8,90,57,33,30.73,29.58,172,2,172,0.00
2013-11-25,39,32,27,24,19,14,68,58,47,30.45,30.16,4,1,10,0.00
2013-11-26,48,34,24,31,24,12,76,65,52,30.25,29.77,12,3,57,0.00
2013-11-27,34,23,17,13,11,7,78,60,36,30.37,28.82,172,3,172,0.00
2013-11-28,55,33,17,26,18,10,86,58,29,30.49,28.82,172,1,172,0.00
2013-11-29,58,36,18,31,26,17,96,70,34,30.58,29.58,7,1,13,0.00
2013-11-30,63,45,30,39,34,27,93,67,37,30.39,28.82,5,1,115,0.00
2013-12-1,69,49,28,48,41,22,99,75,45,30.14,29.77,4,0,132,0.00
2013-12-2,66,52,34,52,46,34,99,83,56,29.89,29.70,5,1,9,0.00
2013-12-3,57,53,51,56,53,37,99,98,90,29.77,28.82,4,1,9,0.00
2013-12-4,68,64,56,59,58,56,99,80,72,29.67,29.58,8,2,16,0.00
2013-12-8,29,26,20,26,25,19,99,95,82,30.23,30.01,5,1,11,0.00
2013-12-9,30,26,20,27,20,14,98,77,53,30.33,30.12,9,3,16,0.00
2013-12-10,44,26,12,20,17,10,99,72,36,30.34,30.26,8,1,14,0.09
2013-12-11,42,25,11,26,16,4,98,71,50,30.65,30.31,10,2,14,0.00
2013-12-12,47,24,4,18,11,0,89,61,25,30.64,30.29,4,1,8,0.00
2013-12-13,38,31,19,33,27,15,99,83,54,30.29,29.95,2,0,5,0.14
2013-12-14,36,32,28,36,32,26,99,98,93,30.17,29.84,11,3,19,0.27
2013-12-15,47,32,25,33,27,23,97,82,55,30.24,30.07,10,2,14,0.00
2013-12-16,39,36,34,33,31,29,84,81,78,30.06,30.04,0,0,2,0.00
2013-12-17,51,39,28,32,28,23,96,65,43,30.31,30.13,11,3,17,0.00
2013-12-18,55,40,21,42,29,19,99,67,36,30.31,29.99,172,2,172,0.00
2013-12-19,61,52,46,53,46,41,90,80,64,30.00,29.84,9,3,17,0.00
2013-12-20,71,57,38,62,54,38,99,91,70,29.88,29.76,8,3,16,0.27
2013-12-21,38,35,33,38,35,32,99,99,99,29.86,29.57,5,1,8,1.06
2013-12-22,40,34,28,40,32,24,99,92,78,30.29,29.68,10,4,14,0.00
2013-12-23,34,25,14,24,18,9,90,75,53,30.58,30.29,9,4,14,0.00
2013-12-24,32,19,7,13,7,2,89,61,29,30.63,30.36,11,3,16,0.00
2013-12-25,42,32,20,31,24,13,95,74,60,30.36,30.26,8,2,14,0.00
2013-12-26,60,39,24,35,26,18,99,68,21,30.42,30.29,5,1,11,0.00
2013-12-29,42,32,19,34,26,12,88,76,66,30.26,29.91,11,3,16,0.00
2013-12-30,36,23,10,13,9,6,82,57,30,30.34,30.22,5,1,8,0.00
2013-12-31,57,37,22,27,20,13,76,54,24,30.43,30.23,5,2,9,0.00
2014-1-1,46,38,29,36,30,26,99,72,53,30.22,29.99,4,1,8,0.04
2014-1-2,28,19,10,28,14,5,99,80,56,30.49,30.05,0,0,0,0.01